Weather observations for the past three days for
Nikolai
Imperial (Metric)
Date Time (akdt) Wind (mph) Vis. (mi.) Weather Sky Cond. Temperature (ºF) Relative Humidity Wind Chill (°F) Heat Index (°F) Pressure Precipitation (in)
Air Dwpt 6 hour altimeter (in) sea level (mb) 1 hr 3 hr 6 hr
Max. Min.
13 11:01 SW 5 10.00 Overcast OVC049 54 46.9 77% 30.21 1023.6
13 10:01 SW 7 10.00 Overcast OVC043 54 46.9 54 51.1 77% 30.21 1023.4
13 09:01 SW 5 10.00 Overcast OVC041 53.1 48 83% 30.2 1023.1
13 08:01 S 3 10.00 Overcast OVC040 52 48 86% 30.19 1022.9
13 07:01 SW 5 8.00 Light Rain OVC036 51.1 48 89% 30.18 1022.7
13 06:01 S 3 10.00 Overcast OVC038 51.1 46.9 86% 30.17 1022.2
13 05:01 Calm 10.00 Overcast OVC040 51.1 46.9 86% 30.16 1021.9
13 04:01 S 3 10.00 Overcast OVC040 51.1 46.9 55 51.1 86% 30.15 1021.7
13 03:01 SW 3 10.00 Overcast OVC040 52 46 80% 30.15 1021.4
13 02:01 Calm 10.00 Overcast FEW046 OVC065 53.1 46 77% 30.14 1021.1
13 01:01 SW 3 10.00 Overcast OVC065 53.1 46.9 80% 30.13 1020.7
13 00:01 Calm 10.00 Overcast OVC060 53.1 46.9 80% 30.12 1020.5
12 23:01 Calm 10.00 Overcast BKN055 OVC065 54 46.9 77% 30.11 1020.1
12 22:01 Calm 10.00 Overcast OVC060 54 46.9 57 54 77% 30.09 1019.6
12 21:01 SW 3 10.00 Light Rain OVC055 55.9 46.9 72% 30.08 1019.3
12 20:01 W 7 10.00 Light Rain OVC060 55.9 46 70% 30.07 1019.0
12 19:01 W 8 10.00 Overcast SCT045 BKN055 OVC065 57 45 64% 30.07 1018.7
12 18:01 W 8 10.00 Overcast FEW046 OVC065 57 46 67% 30.06 1018.4
12 17:01 W 10 10.00 Overcast BKN045 OVC055 55 44.1 67% 30.05 1018.3
12 16:01 W 9 10.00 Overcast BKN042 OVC060 54 44.1 55 50 69% 30.05 1018.1
12 15:01 W 9 10.00 Overcast BKN044 OVC055 55 44.1 67% 30.04 1017.7
12 14:01 W 6 10.00 Overcast OVC036 52 44.1 75% 30.04 1017.6
12 13:01 W 9 10.00 Overcast OVC036 52 45 77% 30.02 1017.2
12 12:01 SW 8 10.00 Overcast OVC032 51.1 44.1 77% 30.02 1016.9
12 11:01 SW 10 10.00 Overcast OVC040 51.1 43 74% 30 1016.4
12 10:01 SW 10 10.00 Overcast OVC034 50 43 51.1 48 77% 46 29.99 1015.9
12 09:01 SW 10 G 18 10.00 Overcast OVC034 48.9 44.1 83% 45 29.97 1015.2
12 08:01 SW 7 10.00 Overcast OVC034 48.9 45 86% 46 29.95 1014.7
12 07:01 SW 8 10.00 Overcast OVC032 48.9 46 90% 46 29.92 1013.8 0.1
12 06:01 SW 8 10.00 Overcast OVC035 48.9 46.9 93% 46 29.9 1013.0
12 05:01 SW 8 G 20 10.00 Overcast BKN010 OVC032 50 48 93% 47 29.88 1012.2
12 04:01 SW 13 G 20 8.00 Light Rain BKN009 BKN012 OVC032 51.1 50 57.9 51.1 96% 29.85 1011.3 0.01 0.1
12 03:01 SW 6 10.00 Overcast FEW013 OVC025 53.1 52 96% 29.82 1010.4 0.03
12 02:01 Vrbl 3 9.00 Rain SCT021 BKN050 OVC075 55 54 96% 29.8 1009.5 0.06
12 01:01 Vrbl 3 10.00 Light Rain OVC050 54 51.1 90% 29.77 1008.5 0.01
12 00:01 Vrbl 5 10.00 Overcast FEW055 OVC080 55.9 54 93% 29.75 1007.7
11 23:01 Calm 10.00 Overcast OVC080 57 55.9 96% 29.74 1007.3
11 22:01 Calm 10.00 Overcast OVC080 57.9 55.9 71.1 57 93% 29.72 1006.8 0.02
11 21:01 SE 5 10.00 Light Rain FEW055 OVC075 57.9 55.9 93% 29.7 1006.0
11 20:01 E 3 10.00 Light Rain OVC085 57.9 55.9 93% 29.68 1005.5 0.01
11 19:01 NE 6 10.00 Light Rain OVC085 59 55 87% 29.68 1005.4 0.01 0.01
11 17:01 Vrbl 3 10.00 Mostly Cloudy FEW050 BKN080 71.1 48 44% 29.65 1004.4
11 16:01 Vrbl 3 10.00 Fair CLR 69.1 46.9 69.1 57.9 45% 29.66 1004.7
11 15:01 W 9 10.00 Overcast OVC110 66 48 52% 29.67 1005.2
11 14:01 NW 8 10.00 Overcast OVC110 64.9 48 54% 29.68 1005.7
11 13:01 W 9 10.00 Mostly Cloudy BKN100 62.1 48.9 62% 29.69 1005.7
11 11:01 W 8 10.00 Overcast OVC085 57.9 48 70% 29.69 1005.9
11 10:01 W 9 10.00 Overcast OVC090 57.9 46.9 57.9 55 67% 29.69 1005.8
11 09:01 SW 6 10.00 Partly Cloudy SCT060 SCT095 55 46 72% 29.69 1005.9
11 08:01 Calm 10.00 Overcast SCT060 OVC110 55 46 72% 29.69 1005.8
11 07:01 SW 6 10.00 Mostly Cloudy SCT090 BKN110 55.9 44.1 65% 29.68 1005.3
11 06:01 SW 10 10.00 Overcast OVC100 57 43 60% 29.67 1005.1
11 05:01 Vrbl 6 10.00 Mostly Cloudy BKN090 57 42.1 58% 29.67 1005.0
11 04:01 Vrbl 3 10.00 Overcast OVC085 55.9 44.1 63 55 65% 29.67 1005.0
11 03:01 SW 5 10.00 Overcast OVC080 57 45 64% 29.66 1004.6
11 02:01 Calm 10.00 Overcast OVC085 55.9 46 70% 29.65 1004.4
11 01:01 Calm 10.00 Overcast OVC100 57.9 45 62% 29.64 1004.2
11 00:01 Calm 10.00 Overcast OVC100 59 46.9 64% 29.64 1004.1
10 23:01 Calm 10.00 Overcast OVC090 61 45 56% 29.64 1003.8
10 22:01 Calm 10.00 Overcast OVC090 63 48 72 63 58% 29.63 1003.5
10 21:01 Calm 10.00 Mostly Cloudy BKN090 BKN110 64 46 52% 29.62 1003.4
10 20:01 Vrbl 3 10.00 Overcast SCT095 OVC110 66.9 41 39% 29.62 1003.5
10 19:01 S 5 10.00 Overcast FEW100 OVC120 69.1 39 33% 29.62 1003.5
10 18:01 SW 6 10.00 Overcast OVC120 70 37.9 31% 29.63 1003.6
10 17:01 Vrbl 3 10.00 Overcast OVC100 68 37.9 33% 29.64 1004.0
10 16:01 Vrbl 6 10.00 Fair CLR 70 37.9 70 66 31% 29.64 1004.0
10 15:01 S 7 10.00 Fair CLR 66.9 37 33% 29.65 1004.3
10 14:01 Calm 10.00 Fair CLR 68 37.9 33% 29.65 1004.4
10 13:01 Vrbl 6 10.00 Fair CLR 69.1 37 31% 29.65 1004.2
10 12:01 Vrbl 6 10.00 Fair CLR 69.1 37 31% 29.64 1003.8
Date Time (akdt) Wind (mph) Vis. (mi.) Weather Sky Cond. Air Dwpt Max. Min. Relative Humidity Wind Chill (°F) Heat Index (°F) altimeter (in) sea level (mb) 1 hr 3 hr 6 hr
6 hour
Temperature (ºF) Pressure Precipitation (in)